When you browse on this site, cookies collect data to enhance your experience and personalize the content and advertising you see.
Visit our Privacy Policy to learn more. By continuing to use the site, you agree to this use of cookies and data.

Hourly Weather Dulebna

Today, 3 July, Friday

Time Temperature Precipitation Wind Pressure Humidity
00:00 +20°C° 0.2 mm 1 mps 744 mmHg 94%
01:00 +20°C° 0.2 mm 1 mps 744 mmHg 94%
02:00 +20°C° 0.2 mm 1 mps 744 mmHg 94%
03:00 +20°C° 0.3 mm 1 mps 744 mmHg 94%
04:00 +20°C° 0.3 mm 1 mps 744 mmHg 95%
05:00 +20°C° 0.3 mm 1 mps 744 mmHg 95%
06:00 +20°C° 0.2 mm 1 mps 744 mmHg 94%
07:00 +20°C° 0.2 mm 1 mps 744 mmHg 93%
08:00 +19°C° 0.2 mm 2 mps 745 mmHg 93%
09:00 +20°C° 0.1 mm 2 mps 745 mmHg 90%
10:00 +21°C° 0.1 mm 2 mps 745 mmHg 87%
11:00 +22°C° 0.1 mm 3 mps 745 mmHg 84%
12:00 +22°C° 0.4 mm 3 mps 745 mmHg 82%
13:00 +24°C° 0.4 mm 3 mps 745 mmHg 80%
14:00 +25°C° 0.4 mm 3 mps 744 mmHg 78%
15:00 +25°C° 0.5 mm 2 mps 744 mmHg 79%
16:00 +25°C° 0.5 mm 2 mps 744 mmHg 80%
17:00 +25°C° 0.5 mm 2 mps 744 mmHg 82%
18:00 +24°C° 1.4 mm 2 mps 744 mmHg 85%
19:00 +23°C° 1.4 mm 2 mps 744 mmHg 89%
20:00 +22°C° 1.4 mm 1 mps 744 mmHg 92%
21:00 +21°C° 0.2 mm 1 mps 744 mmHg 93%
22:00 +21°C° 0.2 mm 1 mps 744 mmHg 93%
23:00 +20°C° 0.2 mm 1 mps 744 mmHg 94%

Tomorrow, 4 July, Saturday

Time Temperature Precipitation Wind Pressure Humidity
00:00 +20°C° 0 mm 1 mps 744 mmHg 94%
01:00 +20°C° 0 mm 1 mps 744 mmHg 94%
02:00 +18°C° 0 mm 0 mps 744 mmHg 95%
03:00 +20°C° 0 mm 1 mps 744 mmHg 94%
04:00 +20°C° 0 mm 1 mps 744 mmHg 94%
05:00 +20°C° 0 mm 1 mps 744 mmHg 94%
06:00 +21°C° 0 mm 1 mps 744 mmHg 93%
07:00 +20°C° 0 mm 2 mps 745 mmHg 91%
08:00 +21°C° 0 mm 2 mps 745 mmHg 89%
09:00 +23°C° 0.1 mm 2 mps 745 mmHg 82%
10:00 +24°C° 0.1 mm 2 mps 745 mmHg 75%
11:00 +26°C° 0.1 mm 3 mps 746 mmHg 68%
12:00 +26°C° 0.1 mm 3 mps 746 mmHg 67%
13:00 +26°C° 0.1 mm 3 mps 746 mmHg 65%
14:00 +27°C° 0.1 mm 3 mps 745 mmHg 64%
15:00 +26°C° 0.2 mm 3 mps 745 mmHg 66%
16:00 +26°C° 0.2 mm 3 mps 745 mmHg 69%
17:00 +26°C° 0.2 mm 3 mps 745 mmHg 71%
18:00 +24°C° 0 mm 2 mps 745 mmHg 76%
19:00 +23°C° 0 mm 2 mps 745 mmHg 80%
20:00 +21°C° 0 mm 2 mps 746 mmHg 84%
21:00 +19°C° 0 mm 2 mps 746 mmHg 85%
22:00 +18°C° 0 mm 2 mps 746 mmHg 86%
23:00 +17°C° 0 mm 2 mps 746 mmHg 87%

Day after tomorrow, 5 July, Sunday

Time Temperature Precipitation Wind Pressure Humidity
00:00 +16°C° 0 mm 2 mps 746 mmHg 87%
01:00 +16°C° 0 mm 2 mps 746 mmHg 87%
02:00 +15°C° 0 mm 2 mps 746 mmHg 87%
03:00 +15°C° 0 mm 1 mps 746 mmHg 87%
04:00 +15°C° 0 mm 1 mps 746 mmHg 88%
05:00 +15°C° 0 mm 1 mps 746 mmHg 88%
06:00 +18°C° 0 mm 1 mps 746 mmHg 82%
07:00 +20°C° 0 mm 1 mps 746 mmHg 75%
08:00 +22°C° 0 mm 1 mps 746 mmHg 68%
09:00 +23°C° 0 mm 1 mps 746 mmHg 63%
10:00 +24°C° 0 mm 2 mps 746 mmHg 57%
11:00 +26°C° 0 mm 2 mps 746 mmHg 52%
12:00 +26°C° 0 mm 2 mps 746 mmHg 51%
13:00 +26°C° 0 mm 2 mps 746 mmHg 51%
14:00 +27°C° 0 mm 2 mps 745 mmHg 50%
15:00 +26°C° 0.1 mm 3 mps 745 mmHg 56%
16:00 +26°C° 0.1 mm 3 mps 745 mmHg 63%
17:00 +25°C° 0.1 mm 3 mps 745 mmHg 69%
18:00 +24°C° 0.1 mm 2 mps 745 mmHg 75%
19:00 +23°C° 0.1 mm 2 mps 745 mmHg 81%
20:00 +21°C° 0.1 mm 1 mps 745 mmHg 86%
21:00 +21°C° 0 mm 1 mps 745 mmHg 89%
22:00 +19°C° 0 mm 2 mps 745 mmHg 91%
23:00 +18°C° 0 mm 2 mps 745 mmHg 93%

6 July, Monday

Time Temperature Precipitation Wind Pressure Humidity
00:00 +18°C° 0 mm 2 mps 745 mmHg 93%
01:00 +17°C° 0 mm 2 mps 745 mmHg 93%
02:00 +17°C° 0 mm 2 mps 744 mmHg 94%
03:00 +17°C° 0 mm 2 mps 744 mmHg 93%
04:00 +17°C° 0 mm 3 mps 744 mmHg 93%
05:00 +18°C° 0 mm 3 mps 744 mmHg 93%
06:00 +19°C° 0 mm 3 mps 744 mmHg 87%
07:00 +21°C° 0 mm 4 mps 744 mmHg 82%
08:00 +22°C° 0 mm 4 mps 744 mmHg 76%
09:00 +25°C° 0 mm 4 mps 744 mmHg 71%
10:00 +26°C° 0 mm 5 mps 744 mmHg 67%
11:00 +27°C° 0 mm 5 mps 744 mmHg 63%
12:00 +28°C° 0.1 mm 5 mps 744 mmHg 62%
13:00 +28°C° 0.1 mm 5 mps 744 mmHg 61%
14:00 +29°C° 0.1 mm 5 mps 743 mmHg 60%
15:00 +28°C° 0.2 mm 4 mps 743 mmHg 63%
16:00 +28°C° 0.2 mm 4 mps 743 mmHg 66%
17:00 +28°C° 0.2 mm 4 mps 743 mmHg 69%
18:00 +26°C° 0.3 mm 3 mps 743 mmHg 75%
19:00 +25°C° 0.3 mm 2 mps 743 mmHg 82%
20:00 +23°C° 0.3 mm 2 mps 743 mmHg 88%
21:00 +23°C° 0.1 mm 1 mps 743 mmHg 89%
22:00 +22°C° 0.1 mm 1 mps 743 mmHg 90%
23:00 +21°C° 0.1 mm 1 mps 743 mmHg 91%

7 July, Tuesday

Time Temperature Precipitation Wind Pressure Humidity
00:00 +21°C° 0.3 mm 1 mps 742 mmHg 92%
01:00 +21°C° 0.3 mm 1 mps 742 mmHg 93%
02:00 +20°C° 0.3 mm 1 mps 742 mmHg 94%
03:00 +20°C° 0.8 mm 1 mps 742 mmHg 95%
04:00 +20°C° 0.8 mm 1 mps 742 mmHg 96%
05:00 +20°C° 0.8 mm 1 mps 742 mmHg 96%
06:00 +21°C° 1 mm 1 mps 742 mmHg 96%
07:00 +21°C° 1 mm 1 mps 743 mmHg 95%
08:00 +21°C° 1 mm 1 mps 743 mmHg 95%
09:00 +20°C° 0.7 mm 2 mps 743 mmHg 94%
10:00 +20°C° 0.7 mm 2 mps 743 mmHg 94%
11:00 +20°C° 0.7 mm 3 mps 743 mmHg 94%
12:00 +20°C° 0.2 mm 3 mps 743 mmHg 92%
13:00 +20°C° 0.2 mm 3 mps 743 mmHg 90%
14:00 +20°C° 0.2 mm 4 mps 743 mmHg 88%
15:00 +19°C° 0 mm 4 mps 743 mmHg 86%
16:00 +19°C° 0 mm 4 mps 743 mmHg 83%
17:00 +18°C° 0 mm 4 mps 743 mmHg 80%
18:00 +18°C° 0 mm 4 mps 743 mmHg 78%
19:00 +17°C° 0 mm 3 mps 743 mmHg 76%
20:00 +16°C° 0 mm 3 mps 743 mmHg 74%
21:00 +16°C° 0.1 mm 3 mps 743 mmHg 76%
22:00 +16°C° 0.1 mm 3 mps 743 mmHg 78%
23:00 +16°C° 0.1 mm 2 mps 743 mmHg 80%

8 July, Wednesday

Time Temperature Precipitation Wind Pressure Humidity
00:00 +14°C° 0 mm 3 mps 743 mmHg 82%
01:00 +14°C° 0 mm 3 mps 743 mmHg 84%
02:00 +13°C° 0 mm 3 mps 743 mmHg 86%
03:00 +13°C° 0 mm 4 mps 743 mmHg 85%
04:00 +13°C° 0 mm 4 mps 744 mmHg 83%
05:00 +13°C° 0 mm 4 mps 744 mmHg 82%
06:00 +12°C° 0.4 mm 4 mps 744 mmHg 85%
07:00 +12°C° 0.4 mm 3 mps 744 mmHg 88%
08:00 +12°C° 0.4 mm 3 mps 744 mmHg 90%
09:00 +13°C° 0 mm 3 mps 744 mmHg 82%
10:00 +16°C° 0 mm 3 mps 744 mmHg 74%
11:00 +17°C° 0 mm 4 mps 744 mmHg 66%
12:00 +18°C° 0 mm 4 mps 744 mmHg 62%
13:00 +19°C° 0 mm 3 mps 744 mmHg 59%
14:00 +20°C° 0 mm 3 mps 744 mmHg 55%
15:00 +19°C° 0.2 mm 4 mps 744 mmHg 60%
16:00 +18°C° 0.2 mm 4 mps 743 mmHg 66%
17:00 +17°C° 0.2 mm 5 mps 743 mmHg 72%
18:00 +17°C° 0.2 mm 4 mps 743 mmHg 76%
19:00 +14°C° 0.2 mm 3 mps 743 mmHg 81%
20:00 +13°C° 0.2 mm 3 mps 743 mmHg 85%
21:00 +12°C° 0 mm 3 mps 744 mmHg 87%
22:00 +11°C° 0 mm 3 mps 744 mmHg 90%
23:00 +10°C° 0 mm 3 mps 744 mmHg 92%
Show more